Página principal
METAR-TAF:

METAR-TAF

Aeroportos :

Qazvin, Irão

latitude: 36-15N, longitude: 050-00E, altura: 1278 m

Observação actual do tempo

O boletim foi feito há 1 hora e 42 minutos, às 17:00 UTC
Vento 2 kt de norte
Temperatura 4°C
Humidade 65%
Pressão 1020 hPa
Visibilidade 10 km ou mais
sem nuvens abaixo de 1500 metros e sem cumulonimbus

METAR: OIIK 231700Z 01002KT CAVOK 04/M02 Q1020

Hora: 22:12 (18:42 UTC)


TAF: em falta

Observações e previsões do tempo de mais de 4000 aeroportos (mensagens METAR e TAF).

As estações disponíveis são os pontos amarelos e vermelhos sobre o mapa.

Mova o rato sobre o mapa para ver o nome da estação.

Depois clique no ponto para visualizar as observações e previsões meteorológicas.

Para alterar o mapa : clique nos botões verdes com uma cruz preta para aumentar o zoom; no botão verde com uma pitada de zoom; ou nas setas verdes para mapas adjacentes.


METAR-TAF: